Flag for India Weather past 2 weeks in Wardha, Maharashtra, India

Now
90 °F

Broken clouds.


Feels Like: 95 °F
Forecast: 78 / 91 °F
Wind: 9 mph from Northwest

Location: Nagpur Sonegaon

Current Time: Aug 1, 2015 at 6:23:02 PM

Latest Report: Aug 1, 2015 at 5:40 PM


Visibility: 3 mi

Pressure: 29.71 "Hg

Humidity: 52%

Dew point: 70 °F

Location of WardhaLocation

Historic Weather in Wardha — Graph

°F

Wardha temperature yesterday

Maximum temperature yesterday: 90 °F (at 2:10 PM)
Minimum temperature yesterday: 73 °F (at 4:40 AM)
Average temperature yesterday: 81 °F

Past Weeks' High & Low Weather Summary

 TemperatureHumidityPressure
High97 °F (Jul 18, 2:40 PM)100% (Jul 20, 7:40 AM)29.83 "Hg (Jul 20, 7:40 AM)
Low73 °F (Jul 24, 2:40 AM)49% (Aug 1, 5:10 PM)29.47 "Hg (Jul 20, 5:10 PM)
Average81 °F80%29.67 "Hg
* Reported Jul 17 4:40 PM — Aug 1 5:10 PM, Wardha, Weather by CustomWeather, © 2015

Note: Actual official high and low records may vary slightly from our data, if they occured in-between our weather recording intervals... More about our weather records

Advertising

Wardha weather history for previous 24 hours

 ConditionsComfort  
Time TempWeatherWind HumidityBarometerVisibility
5:10 PM
Sat, Aug 1
91 °FScattered clouds.9 mph49%29.71 "Hg3 mi
4:40 PM91 °FBroken clouds.7 mph52%29.71 "Hg3 mi
4:10 PM90 °FBroken clouds.7 mph59%29.71 "Hg3 mi
3:40 PM90 °FBroken clouds.9 mph55%29.71 "Hg3 mi
3:10 PM90 °FBroken clouds.12 mph55%29.74 "Hg3 mi
2:40 PM90 °FBroken clouds.10 mph55%29.74 "Hg3 mi
2:10 PM93 °FBroken clouds.14 mph53%29.74 "Hg3 mi
1:10 PM90 °FBroken clouds.9 mph59%29.80 "Hg4 mi
12:10 PM90 °FBroken clouds.10 mph59%29.80 "Hg4 mi
11:40 AM88 °FBroken clouds.9 mph62%29.83 "Hg4 mi
10:40 AM86 °FPartly sunny.13 mph66%29.83 "Hg4 mi
10:10 AM84 °FPartly sunny.12 mph70%29.83 "Hg4 mi
9:40 AM84 °FPartly sunny.10 mph70%29.83 "Hg3 mi
9:10 AM84 °FPartly sunny.12 mph70%29.83 "Hg3 mi
8:40 AM82 °FPartly sunny.8 mph74%29.83 "Hg3 mi
8:10 AM81 °FHaze.2 mph79%29.80 "Hg3 mi
7:40 AM77 °FHaze.No wind83%29.80 "Hg3 mi
7:10 AM77 °FPartly sunny.No wind83%29.80 "Hg3 mi
6:40 AM75 °FPartly sunny.No wind89%29.77 "Hg2 mi
6:10 AM75 °FPassing clouds.No wind83%29.77 "Hg2 mi
5:40 AM75 °FPassing clouds.No wind83%29.74 "Hg2 mi
5:10 AM75 °FPassing clouds.No wind83%29.74 "Hg3 mi
3:40 AM75 °FPassing clouds.No wind83%29.74 "Hg3 mi
3:10 AM77 °FPassing clouds.No wind83%29.74 "Hg3 mi
2:40 AM77 °FPassing clouds.No wind83%29.74 "Hg3 mi
2:10 AM77 °FPassing clouds.No wind83%29.77 "Hg3 mi
12:40 AM77 °FPassing clouds.No wind79%29.77 "Hg3 mi
11:40 PM
Fri, Jul 31
77 °FPassing clouds.No wind83%29.77 "Hg3 mi
11:10 PM77 °FPassing clouds.No wind83%29.77 "Hg3 mi
10:10 PM81 °FPassing clouds.No wind74%29.74 "Hg3 mi
9:40 PM81 °FPassing clouds.No wind74%29.74 "Hg3 mi
8:40 PM82 °FPassing clouds.No wind70%29.74 "Hg3 mi
8:10 PM82 °FPassing clouds.No wind70%29.71 "Hg3 mi
6:40 PM86 °FPartly sunny.2 mph66%29.68 "Hg3 mi
6:10 PM88 °FPartly sunny.3 mph62%29.68 "Hg3 mi
Weather by CustomWeather, © 2015

See weather overviewHow to use our weather pages